Time,TemperatureF,DewpointF,PressureIn,WindDirection,WindDirectionDegrees,WindSpeedMPH,WindSpeedGustMPH,Humidity,HourlyPrecipIn,Conditions,Clouds,dailyrainin,SolarRadiationWatts/m^2,SoftwareType,DateUTC
2013-06-09 00:02:00,56.0,44.0,-100.00,East,99,1.0,5.0,64,0.00,,,0.00,0.000000,,2013-06-09 06:02:00,
2013-06-09 00:11:00,56.0,44.0,-100.00,East,99,1.0,5.0,64,0.00,,,0.00,0.000000,,2013-06-09 06:11:00,
2013-06-09 00:21:00,56.0,44.0,-100.00,East,99,1.0,5.0,64,0.00,,,0.00,0.000000,,2013-06-09 06:21:00,
2013-06-09 00:42:00,52.0,44.0,-100.00,WSW,245,6.0,9.0,75,0.00,,,0.00,0.000000,,2013-06-09 06:42:00,
2013-06-09 00:52:00,52.0,44.0,-100.00,WSW,245,6.0,9.0,75,0.00,,,0.00,0.000000,,2013-06-09 06:52:00,
2013-06-09 01:02:00,52.0,44.0,-100.00,WSW,245,6.0,9.0,75,0.00,,,0.00,0.000000,,2013-06-09 07:02:00,
2013-06-09 01:12:00,52.0,44.0,-100.00,WSW,245,6.0,9.0,75,0.00,,,0.00,0.000000,,2013-06-09 07:12:00,
2013-06-09 01:21:00,52.0,44.0,-100.00,WSW,245,6.0,9.0,75,0.00,,,0.00,0.000000,,2013-06-09 07:21:00,
2013-06-09 01:22:00,52.0,44.0,-100.00,WSW,245,11.0,12.0,74,0.00,,,0.00,0.000000,,2013-06-09 07:22:00,
2013-06-09 01:42:00,52.0,44.0,-100.00,WSW,245,11.0,12.0,74,0.00,,,0.00,0.000000,,2013-06-09 07:42:00,
2013-06-09 01:52:00,52.0,44.0,-100.00,WSW,245,11.0,12.0,74,0.00,,,0.00,0.000000,,2013-06-09 07:52:00,
2013-06-09 02:02:00,52.0,44.0,-100.00,WSW,245,11.0,12.0,74,0.00,,,0.00,0.000000,,2013-06-09 08:02:00,
2013-06-09 02:12:00,52.0,44.0,-100.00,WSW,245,11.0,12.0,74,0.00,,,0.00,0.000000,,2013-06-09 08:12:00,
2013-06-09 02:42:00,53.0,44.0,-100.00,WSW,250,9.0,14.0,71,0.00,,,0.00,0.000000,,2013-06-09 08:42:00,
2013-06-09 02:53:00,53.0,44.0,-100.00,WSW,250,9.0,14.0,71,0.00,,,0.00,0.000000,,2013-06-09 08:53:00,
2013-06-09 03:02:00,53.0,44.0,-100.00,WSW,250,9.0,14.0,71,0.00,,,0.00,0.000000,,2013-06-09 09:02:00,
2013-06-09 03:12:00,53.0,44.0,-100.00,WSW,250,9.0,14.0,71,0.00,,,0.00,0.000000,,2013-06-09 09:12:00,
2013-06-09 03:21:00,53.0,44.0,-100.00,WSW,250,9.0,14.0,71,0.00,,,0.00,0.000000,,2013-06-09 09:21:00,
2013-06-09 03:22:00,53.0,38.0,-100.00,West,281,2.0,11.0,56,0.00,,,0.00,0.000000,,2013-06-09 09:22:00,
2013-06-09 03:43:00,53.0,38.0,-100.00,West,281,2.0,11.0,56,0.00,,,0.00,0.000000,,2013-06-09 09:43:00,
2013-06-09 03:52:00,53.0,38.0,-100.00,West,281,2.0,11.0,56,0.00,,,0.00,0.000000,,2013-06-09 09:52:00,
2013-06-09 04:03:00,53.0,38.0,-100.00,West,281,2.0,11.0,56,0.00,,,0.00,0.000000,,2013-06-09 10:03:00,
2013-06-09 04:12:00,53.0,38.0,-100.00,West,281,2.0,11.0,56,0.00,,,0.00,0.000000,,2013-06-09 10:12:00,
2013-06-09 04:22:00,53.0,36.0,-100.00,South,181,3.0,6.0,52,0.00,,,0.00,0.000000,,2013-06-09 10:22:00,
2013-06-09 04:43:00,53.0,36.0,-100.00,South,181,3.0,6.0,52,0.00,,,0.00,0.000000,,2013-06-09 10:43:00,
2013-06-09 04:52:00,53.0,36.0,-100.00,South,181,3.0,6.0,52,0.00,,,0.00,0.000000,,2013-06-09 10:52:00,
2013-06-09 05:02:00,53.0,36.0,-100.00,South,181,3.0,6.0,52,0.00,,,0.00,0.000000,,2013-06-09 11:02:00,
2013-06-09 05:12:00,53.0,36.0,-100.00,South,181,3.0,6.0,52,0.00,,,0.00,0.000000,,2013-06-09 11:12:00,
2013-06-09 05:22:00,52.0,33.0,-100.00,NNW,348,2.0,5.0,49,0.00,,,0.00,0.000000,,2013-06-09 11:22:00,
2013-06-09 05:42:00,52.0,33.0,-100.00,NNW,348,2.0,5.0,49,0.00,,,0.00,0.000000,,2013-06-09 11:42:00,
2013-06-09 05:52:00,52.0,33.0,-100.00,NNW,348,2.0,5.0,49,0.00,,,0.00,0.000000,,2013-06-09 11:52:00,
2013-06-09 06:02:00,52.0,33.0,-100.00,NNW,348,2.0,5.0,49,0.00,,,0.00,0.000000,,2013-06-09 12:02:00,
2013-06-09 06:12:00,52.0,33.0,-100.00,NNW,348,2.0,5.0,49,0.00,,,0.00,0.000000,,2013-06-09 12:12:00,
2013-06-09 06:22:00,53.0,38.0,-100.00,WSW,243,7.0,9.0,57,0.00,,,0.00,35.000000,,2013-06-09 12:22:00,
2013-06-09 06:42:00,53.0,38.0,-100.00,WSW,243,7.0,9.0,57,0.00,,,0.00,35.000000,,2013-06-09 12:42:00,
2013-06-09 06:52:00,53.0,38.0,-100.00,WSW,243,7.0,9.0,57,0.00,,,0.00,35.000000,,2013-06-09 12:52:00,
2013-06-09 07:02:00,53.0,38.0,-100.00,WSW,243,7.0,9.0,57,0.00,,,0.00,35.000000,,2013-06-09 13:02:00,
2013-06-09 07:12:00,53.0,38.0,-100.00,WSW,243,7.0,9.0,57,0.00,,,0.00,35.000000,,2013-06-09 13:12:00,
2013-06-09 07:42:00,64.0,43.0,-100.00,SW,230,4.0,10.0,46,0.00,,,0.00,209.000000,,2013-06-09 13:42:00,
2013-06-09 07:52:00,64.0,43.0,-100.00,SW,230,4.0,10.0,46,0.00,,,0.00,209.000000,,2013-06-09 13:52:00,
2013-06-09 08:02:00,64.0,43.0,-100.00,SW,230,4.0,10.0,46,0.00,,,0.00,209.000000,,2013-06-09 14:02:00,
2013-06-09 08:43:00,68.0,43.0,-100.00,SE,130,4.0,6.0,41,-99.99,,,0.00,438.000000,,2013-06-09 14:43:00,
2013-06-09 08:52:00,68.0,43.0,-100.00,SE,130,4.0,6.0,41,-99.99,,,0.00,438.000000,,2013-06-09 14:52:00,
2013-06-09 09:02:00,68.0,43.0,-100.00,SE,130,4.0,6.0,41,-99.99,,,0.00,438.000000,,2013-06-09 15:02:00,
2013-06-09 09:12:00,68.0,43.0,-100.00,SE,130,4.0,6.0,41,-99.99,,,0.00,438.000000,,2013-06-09 15:12:00,
2013-06-09 09:21:00,68.0,43.0,-100.00,SE,130,4.0,6.0,41,-99.99,,,0.00,438.000000,,2013-06-09 15:21:00,
2013-06-09 09:22:00,68.0,41.0,-100.00,ESE,117,5.0,8.0,38,-99.99,,,-99.99,674.000000,,2013-06-09 15:22:00,
2013-06-09 09:43:00,68.0,41.0,-100.00,ESE,117,5.0,8.0,38,-99.99,,,-99.99,674.000000,,2013-06-09 15:43:00,
2013-06-09 09:53:00,68.0,41.0,-100.00,ESE,117,5.0,8.0,38,-99.99,,,-99.99,674.000000,,2013-06-09 15:53:00,
2013-06-09 10:03:00,68.0,41.0,-100.00,ESE,117,5.0,8.0,38,-99.99,,,-99.99,674.000000,,2013-06-09 16:03:00,
2013-06-09 10:13:00,68.0,41.0,-100.00,ESE,117,5.0,8.0,38,-99.99,,,-99.99,674.000000,,2013-06-09 16:13:00,
2013-06-09 10:22:00,69.0,42.0,-100.00,ESE,114,6.0,10.0,37,0.00,,,0.00,887.000000,,2013-06-09 16:22:00,
2013-06-09 10:42:00,69.0,42.0,-100.00,ESE,114,6.0,10.0,37,0.00,,,0.00,887.000000,,2013-06-09 16:42:00,
2013-06-09 10:53:00,69.0,42.0,-100.00,ESE,114,6.0,10.0,37,0.00,,,0.00,887.000000,,2013-06-09 16:53:00,
2013-06-09 11:02:00,69.0,42.0,-100.00,ESE,114,6.0,10.0,37,0.00,,,0.00,887.000000,,2013-06-09 17:02:00,
2013-06-09 11:12:00,69.0,42.0,-100.00,ESE,114,6.0,10.0,37,0.00,,,0.00,887.000000,,2013-06-09 17:12:00,
2013-06-09 11:42:00,71.0,41.0,-100.00,ESE,105,7.0,12.0,34,0.00,,,0.00,1076.000000,,2013-06-09 17:42:00,
2013-06-09 11:52:00,71.0,41.0,-100.00,ESE,105,7.0,12.0,34,0.00,,,0.00,1076.000000,,2013-06-09 17:52:00,
2013-06-09 12:02:00,71.0,41.0,-100.00,ESE,105,7.0,12.0,34,0.00,,,0.00,1076.000000,,2013-06-09 18:02:00,
2013-06-09 12:12:00,71.0,41.0,-100.00,ESE,105,7.0,12.0,34,0.00,,,0.00,1076.000000,,2013-06-09 18:12:00,
2013-06-09 12:21:00,71.0,41.0,-100.00,ESE,105,7.0,12.0,34,0.00,,,0.00,1076.000000,,2013-06-09 18:21:00,
2013-06-09 12:42:00,72.0,44.0,-100.00,ESE,107,8.0,15.0,36,0.00,,,0.00,1208.000000,,2013-06-09 18:42:00,
2013-06-09 12:52:00,72.0,44.0,-100.00,ESE,107,8.0,15.0,36,0.00,,,0.00,1208.000000,,2013-06-09 18:52:00,
2013-06-09 13:02:00,72.0,44.0,-100.00,ESE,107,8.0,15.0,36,0.00,,,0.00,1208.000000,,2013-06-09 19:02:00,
2013-06-09 13:12:00,72.0,44.0,-100.00,ESE,107,8.0,15.0,36,0.00,,,0.00,1208.000000,,2013-06-09 19:12:00,
2013-06-09 13:21:00,72.0,44.0,-100.00,ESE,107,8.0,15.0,36,0.00,,,0.00,1208.000000,,2013-06-09 19:21:00,
2013-06-09 13:22:00,74.0,43.0,-100.00,East,82,7.0,15.0,33,0.00,,,0.00,1274.000000,,2013-06-09 19:22:00,
2013-06-09 13:43:00,74.0,43.0,-100.00,East,82,7.0,15.0,33,0.00,,,0.00,1274.000000,,2013-06-09 19:43:00,
2013-06-09 13:52:00,74.0,43.0,-100.00,East,82,7.0,15.0,33,0.00,,,0.00,1274.000000,,2013-06-09 19:52:00,
2013-06-09 14:02:00,74.0,43.0,-100.00,East,82,7.0,15.0,33,0.00,,,0.00,1274.000000,,2013-06-09 20:02:00,
2013-06-09 14:12:00,74.0,43.0,-100.00,East,82,7.0,15.0,33,0.00,,,0.00,1274.000000,,2013-06-09 20:12:00,
2013-06-09 14:42:00,77.0,42.0,-100.00,East,89,5.0,13.0,29,-99.99,,,0.00,1277.000000,,2013-06-09 20:42:00,
2013-06-09 14:52:00,77.0,42.0,-100.00,East,89,5.0,13.0,29,-99.99,,,0.00,1277.000000,,2013-06-09 20:52:00,
2013-06-09 15:02:00,77.0,42.0,-100.00,East,89,5.0,13.0,29,-99.99,,,0.00,1277.000000,,2013-06-09 21:02:00,
2013-06-09 15:12:00,77.0,42.0,-100.00,East,89,5.0,13.0,29,-99.99,,,0.00,1277.000000,,2013-06-09 21:12:00,
2013-06-09 15:21:00,77.0,42.0,-100.00,East,89,5.0,13.0,29,-99.99,,,0.00,1277.000000,,2013-06-09 21:21:00,
2013-06-09 15:22:00,81.0,45.0,-100.00,NE,40,6.0,13.0,28,0.00,,,-99.99,1212.000000,,2013-06-09 21:22:00,
2013-06-09 15:44:00,81.0,45.0,-100.00,NE,40,6.0,13.0,28,0.00,,,-99.99,1212.000000,,2013-06-09 21:44:00,
2013-06-09 15:53:00,81.0,45.0,-100.00,NE,40,6.0,13.0,28,0.00,,,-99.99,1212.000000,,2013-06-09 21:53:00,
2013-06-09 16:02:00,81.0,45.0,-100.00,NE,40,6.0,13.0,28,0.00,,,-99.99,1212.000000,,2013-06-09 22:02:00,
2013-06-09 16:12:00,81.0,45.0,-100.00,NE,40,6.0,13.0,28,0.00,,,-99.99,1212.000000,,2013-06-09 22:12:00,
2013-06-09 16:22:00,79.0,43.0,-100.00,NE,43,6.0,13.0,28,0.00,,,0.00,963.000000,,2013-06-09 22:22:00,
2013-06-09 16:42:00,79.0,43.0,-100.00,NE,43,6.0,13.0,28,0.00,,,0.00,963.000000,,2013-06-09 22:42:00,
2013-06-09 16:52:00,79.0,43.0,-100.00,NE,43,6.0,13.0,28,0.00,,,0.00,963.000000,,2013-06-09 22:52:00,
2013-06-09 17:02:00,79.0,43.0,-100.00,NE,43,6.0,13.0,28,0.00,,,0.00,963.000000,,2013-06-09 23:02:00,
2013-06-09 17:12:00,79.0,43.0,-100.00,NE,43,6.0,13.0,28,0.00,,,0.00,963.000000,,2013-06-09 23:12:00,
2013-06-09 17:43:00,79.0,47.0,-100.00,NE,47,5.0,11.0,33,0.00,,,0.00,498.000000,,2013-06-09 23:43:00,
2013-06-09 17:52:00,79.0,47.0,-100.00,NE,47,5.0,11.0,33,0.00,,,0.00,498.000000,,2013-06-09 23:52:00,
2013-06-09 18:02:00,79.0,47.0,-100.00,NE,47,5.0,11.0,33,0.00,,,0.00,498.000000,,2013-06-10 00:02:00,
2013-06-09 18:12:00,79.0,47.0,-100.00,NE,47,5.0,11.0,33,0.00,,,0.00,498.000000,,2013-06-10 00:12:00,
2013-06-09 18:21:00,79.0,47.0,-100.00,NE,47,5.0,11.0,33,0.00,,,0.00,498.000000,,2013-06-10 00:21:00,
2013-06-09 18:22:00,75.0,47.0,-100.00,SSE,167,5.0,8.0,37,0.00,,,0.00,204.000000,,2013-06-10 00:22:00,
2013-06-09 18:42:00,75.0,47.0,-100.00,SSE,167,5.0,8.0,37,0.00,,,0.00,204.000000,,2013-06-10 00:42:00,
2013-06-09 18:52:00,75.0,47.0,-100.00,SSE,167,5.0,8.0,37,0.00,,,0.00,204.000000,,2013-06-10 00:52:00,
2013-06-09 19:02:00,75.0,47.0,-100.00,SSE,167,5.0,8.0,37,0.00,,,0.00,204.000000,,2013-06-10 01:02:00,
2013-06-09 19:12:00,75.0,47.0,-100.00,SSE,167,5.0,8.0,37,0.00,,,0.00,204.000000,,2013-06-10 01:12:00,
2013-06-09 19:43:00,73.0,54.0,-100.00,East,88,2.0,7.0,52,0.00,,,0.00,134.000000,,2013-06-10 01:43:00,
2013-06-09 19:52:00,73.0,54.0,-100.00,East,88,2.0,7.0,52,0.00,,,0.00,134.000000,,2013-06-10 01:52:00,
2013-06-09 20:02:00,73.0,54.0,-100.00,East,88,2.0,7.0,52,0.00,,,0.00,134.000000,,2013-06-10 02:02:00,
2013-06-09 20:12:00,73.0,54.0,-100.00,East,88,2.0,7.0,52,0.00,,,0.00,134.000000,,2013-06-10 02:12:00,
2013-06-09 20:21:00,73.0,54.0,-100.00,East,88,2.0,7.0,52,0.00,,,0.00,134.000000,,2013-06-10 02:21:00,
2013-06-09 20:42:00,71.0,50.0,-100.00,SSW,195,3.0,9.0,47,0.00,,,0.00,58.000000,,2013-06-10 02:42:00,
2013-06-09 20:52:00,71.0,50.0,-100.00,SSW,195,3.0,9.0,47,0.00,,,0.00,58.000000,,2013-06-10 02:52:00,
2013-06-09 21:02:00,71.0,50.0,-100.00,SSW,195,3.0,9.0,47,0.00,,,0.00,58.000000,,2013-06-10 03:02:00,
2013-06-09 21:12:00,71.0,50.0,-100.00,SSW,195,3.0,9.0,47,0.00,,,0.00,58.000000,,2013-06-10 03:12:00,
2013-06-09 21:21:00,71.0,50.0,-100.00,SSW,195,3.0,9.0,47,0.00,,,0.00,58.000000,,2013-06-10 03:21:00,
2013-06-09 21:22:00,65.0,51.0,-100.00,West,278,10.0,17.0,61,0.02,,,-99.99,8.000000,,2013-06-10 03:22:00,
2013-06-09 21:43:00,65.0,51.0,-100.00,West,278,10.0,17.0,61,0.02,,,-99.99,8.000000,,2013-06-10 03:43:00,
2013-06-09 21:53:00,65.0,51.0,-100.00,West,278,10.0,17.0,61,0.02,,,-99.99,8.000000,,2013-06-10 03:53:00,
2013-06-09 22:03:00,65.0,51.0,-100.00,West,278,10.0,17.0,61,0.02,,,-99.99,8.000000,,2013-06-10 04:03:00,
2013-06-09 22:12:00,65.0,51.0,-100.00,West,278,10.0,17.0,61,0.02,,,-99.99,8.000000,,2013-06-10 04:12:00,
2013-06-09 22:22:00,63.0,43.0,-100.00,NW,304,8.0,19.0,48,0.00,,,0.02,0.000000,,2013-06-10 04:22:00,
2013-06-09 22:42:00,63.0,43.0,-100.00,NW,304,8.0,19.0,48,0.00,,,0.02,0.000000,,2013-06-10 04:42:00,
2013-06-09 22:52:00,63.0,43.0,-100.00,NW,304,8.0,19.0,48,0.00,,,0.02,0.000000,,2013-06-10 04:52:00,
2013-06-09 23:02:00,63.0,43.0,-100.00,NW,304,8.0,19.0,48,0.00,,,0.02,0.000000,,2013-06-10 05:02:00,
2013-06-09 23:12:00,63.0,43.0,-100.00,NW,304,8.0,19.0,48,0.00,,,0.02,0.000000,,2013-06-10 05:12:00,
2013-06-09 23:22:00,65.0,37.0,-100.00,NW,307,6.0,17.0,36,0.01,,,0.03,0.000000,,2013-06-10 05:22:00,
2013-06-09 23:42:00,65.0,37.0,-100.00,NW,307,6.0,17.0,36,0.01,,,0.03,0.000000,,2013-06-10 05:42:00,
2013-06-09 23:52:00,65.0,37.0,-100.00,NW,307,6.0,17.0,36,0.01,,,0.03,0.000000,,2013-06-10 05:52:00,